Breckenridge, TX

5:29 PM CDT on August 29, 2016 (GMT -0500)
Stephens County

Weather History for KBKD - September, 2014

Change the Weather History Date:

Thursday, September 4, 2014

  Actual Average (KABI) Record (KABI)
Temperature  
Mean Temperature 86 °F 79 °F  
Max Temperature 97 °F 91 °F 106 °F (2000)
Min Temperature 75 °F 68 °F 51 °F (1891)
Degree Days  
Heating Degree Days 0 0  
Month to date heating degree days 0  
Since 1 July heating degree days 0  
Cooling Degree Days 20 14  
Month to date cooling degree days 59  
Year to date cooling degree days 2004  
Growing Degree Days 36 (Base 50)    
Moisture  
Dew Point 64 °F    
Average Humidity 51    
Maximum Humidity 79    
Minimum Humidity 28    
Precipitation  
Precipitation 0.00 in 0.07 in 2.20 in (1961)
Month to date precipitation 0.31  
Year to date precipitation 17.27  
Sea Level Pressure  
Sea Level Pressure 29.99 in    
Wind  
Wind Speed 11 mph (South)    
Max Wind Speed 18 mph    
Max Gust Speed 26 mph    
Visibility 8 miles    
Events      
T = Trace of Precipitation, MM = Missing Value Source: NWS Daily Summary

Daily Weather History Graph

Daily Weather History Graph

Search for Another Location

Airport or City:

Trip Planner

Search our weather history database for the weather conditions in past years. The results will help you decide how hot, cold, wet, or windy it might be!

Date:

Astronomy

Sep. 04, 2014 Rise Set
Actual Time 7:12 AM CDT 7:56 PM CDT
Civil Twilight 6:47 AM CDT 8:21 PM CDT
Nautical Twilight 6:17 AM CDT 8:50 PM CDT
Astronomical Twilight 5:47 AM CDT 9:20 PM CDT
Moon 4:25 PM CDT (9/4) 2:14 AM CDT (9/4)
Length of Visible Light 13h 34m
Length of Day
12h 44m
Waxing Gibbous, 74% of the Moon is Illuminated
Sep 4
Waxing Gibbous
Sep 8
Full
Sep 15
Last Quarter
Sep 24
New
Oct 1
First Quarter

Hourly Weather History & Observations

Time (CDT) Temp. Heat Index Dew Point Humidity Pressure Visibility Wind Dir Wind Speed Gust Speed Precip Events Conditions
12:15 AM 82.4 °F 84.1 °F 64.9 °F 55% 29.97 in 10.0 mi SSW 9.2 mph - N/A   Clear
12:35 AM 81.7 °F 83.5 °F 64.9 °F 57% 29.97 in 7.0 mi SSW 9.2 mph - N/A   Clear
12:55 AM 81.5 °F 83.3 °F 65.1 °F 57% 29.97 in 7.0 mi SSW 10.4 mph - N/A   Clear
1:15 AM 81.1 °F 82.9 °F 65.3 °F 58% 29.97 in 7.0 mi SSW 10.4 mph 16.1 mph N/A   Clear
1:35 AM 80.8 °F 82.6 °F 65.3 °F 59% 29.97 in 7.0 mi SSW 10.4 mph - N/A   Clear
1:55 AM 80.6 °F 82.5 °F 65.7 °F 60% 29.97 in 7.0 mi South 11.5 mph - N/A   Clear
2:15 AM 80.2 °F 82.2 °F 65.5 °F 61% 29.97 in 7.0 mi SSW 10.4 mph 18.4 mph N/A   Clear
2:35 AM 79.9 °F - 65.5 °F 61% 29.97 in 7.0 mi SSW 12.7 mph 16.1 mph N/A   Clear
2:55 AM 79.7 °F - 65.7 °F 62% 29.97 in 7.0 mi SSW 12.7 mph - N/A   Clear
3:15 AM 79.3 °F - 66.2 °F 64% 29.97 in 7.0 mi SSW 12.7 mph 20.7 mph N/A   Clear
3:35 AM 78.4 °F - 66.2 °F 66% 29.98 in 7.0 mi South 12.7 mph - N/A   Clear
3:55 AM 77.9 °F - 66.2 °F 67% 29.98 in 7.0 mi South 8.1 mph - N/A   Clear
4:15 AM 77.4 °F - 66.4 °F 69% 29.98 in 7.0 mi South 10.4 mph - N/A   Clear
4:35 AM 77.2 °F - 66.7 °F 70% 29.98 in 7.0 mi South 9.2 mph - N/A   Clear
4:55 AM 77.0 °F - 67.1 °F 71% 29.98 in 7.0 mi SSW 11.5 mph 17.3 mph N/A   Clear
5:15 AM 76.6 °F - 67.5 °F 73% 29.98 in 7.0 mi SSW 9.2 mph - N/A   Clear
5:35 AM 76.3 °F - 67.6 °F 74% 29.98 in 7.0 mi South 8.1 mph - N/A   Clear
5:55 AM 76.1 °F - 67.8 °F 75% 29.98 in 7.0 mi South 11.5 mph - N/A   Clear
6:15 AM 75.7 °F - 68.0 °F 77% 29.99 in 10.0 mi South 9.2 mph - N/A   Clear
6:35 AM 75.7 °F - 68.2 °F 77% 30.00 in 7.0 mi South 6.9 mph - N/A   Clear
6:55 AM 75.6 °F - 68.0 °F 77% 30.00 in 7.0 mi South 6.9 mph - N/A   Clear
7:15 AM 75.4 °F - 68.2 °F 78% 30.01 in 7.0 mi South 6.9 mph - N/A   Clear
7:35 AM 75.4 °F - 68.4 °F 79% 30.01 in 5.0 mi South 8.1 mph - N/A   Haze
7:55 AM 76.1 °F - 68.5 °F 77% 30.02 in 7.0 mi North - - N/A   Clear
8:15 AM 77.4 °F - 68.7 °F 75% 30.03 in 7.0 mi South 8.1 mph - N/A   Clear
8:35 AM 78.8 °F - 68.5 °F 71% 30.03 in 7.0 mi South 6.9 mph - N/A   Clear
8:55 AM 80.1 °F 82.7 °F 68.4 °F 67% 30.04 in 7.0 mi SSW 8.1 mph - N/A   Clear
9:15 AM 81.0 °F 83.8 °F 68.4 °F 65% 30.04 in 5.0 mi South 9.2 mph 17.3 mph N/A   Haze
9:35 AM 82.0 °F 85.1 °F 68.2 °F 63% 30.05 in 4.0 mi SSW 12.7 mph 18.4 mph N/A   Haze
9:55 AM 82.6 °F 85.7 °F 68.2 °F 62% 30.05 in 5.0 mi South 11.5 mph - N/A   Haze
10:15 AM 84.6 °F 87.4 °F 67.1 °F 56% 30.05 in 7.0 mi South 15.0 mph 19.6 mph N/A   Clear
10:35 AM 86.0 °F 87.9 °F 65.3 °F 50% 30.05 in 5.0 mi SSW 13.8 mph - N/A   Haze
11:15 AM 87.6 °F 88.5 °F 63.0 °F 44% 30.05 in 7.0 mi South 13.8 mph 25.3 mph N/A   Clear
11:35 AM 88.3 °F 88.6 °F 61.7 °F 41% 30.05 in 7.0 mi South 16.1 mph 21.9 mph N/A   Clear
11:55 AM 89.8 °F 90.7 °F 63.1 °F 41% 30.05 in 7.0 mi SSW 13.8 mph 21.9 mph N/A   Clear
12:15 PM 89.2 °F 89.9 °F 62.4 °F 41% 30.05 in 7.0 mi South 11.5 mph 21.9 mph N/A   Clear
12:35 PM 90.9 °F 90.9 °F 61.3 °F 37% 30.04 in 10.0 mi South 16.1 mph 26.5 mph N/A   Clear
12:55 PM 90.5 °F 91.1 °F 62.2 °F 39% 30.03 in 7.0 mi South 17.3 mph 23.0 mph N/A   Clear
1:15 PM 91.2 °F 92.2 °F 63.3 °F 39% 30.02 in 7.0 mi South 16.1 mph 21.9 mph N/A   Scattered Clouds
1:35 PM 92.1 °F 92.8 °F 62.6 °F 37% 30.01 in 7.0 mi South 16.1 mph 25.3 mph N/A   Mostly Cloudy
1:55 PM 92.5 °F 92.6 °F 61.5 °F 35% 30.01 in 5.0 mi South 12.7 mph 25.3 mph N/A   Haze
2:15 PM 92.5 °F 92.6 °F 61.2 °F 35% 30.00 in 7.0 mi SSE 15.0 mph 19.6 mph N/A   Scattered Clouds
2:35 PM 93.2 °F 93.3 °F 61.3 °F 34% 29.99 in 5.0 mi South 11.5 mph 24.2 mph N/A   Haze
2:55 PM 94.6 °F 95.1 °F 61.7 °F 33% 29.98 in 5.0 mi South 10.4 mph 23.0 mph N/A   Haze
3:15 PM 94.5 °F 94.8 °F 61.0 °F 33% 29.98 in 5.0 mi SSW 8.1 mph 23.0 mph N/A   Haze
3:35 PM 95.2 °F 95.1 °F 60.4 °F 31% 29.98 in 7.0 mi South 8.1 mph 23.0 mph N/A   Mostly Cloudy
3:55 PM 95.2 °F 94.7 °F 59.5 °F 30% 29.96 in 7.0 mi SSE 18.4 mph 24.2 mph N/A   Mostly Cloudy
4:15 PM 96.4 °F 95.7 °F 58.6 °F 28% 29.96 in 10.0 mi South 10.4 mph 23.0 mph N/A   Scattered Clouds
4:35 PM 96.3 °F 95.9 °F 58.8 °F 29% 29.95 in 10.0 mi SSE 12.7 mph 17.3 mph N/A   Scattered Clouds
4:55 PM 96.8 °F 96.2 °F 59.0 °F 28% 29.95 in 10.0 mi South 5.8 mph 17.3 mph N/A   Scattered Clouds
5:15 PM 96.3 °F 95.9 °F 58.8 °F 29% 29.94 in 7.0 mi SSW 17.3 mph 21.9 mph N/A   Mostly Cloudy
5:35 PM 96.1 °F 95.6 °F 59.0 °F 29% 29.94 in 5.0 mi South 12.7 mph 23.0 mph N/A   Haze
5:55 PM 95.7 °F 95.1 °F 58.6 °F 29% 29.94 in 5.0 mi SSW 12.7 mph 17.3 mph N/A   Haze
6:15 PM 96.1 °F 95.6 °F 59.4 °F 29% 29.94 in 7.0 mi South 15.0 mph 19.6 mph N/A   Clear
6:35 PM 95.9 °F 95.3 °F 59.2 °F 29% 29.94 in 5.0 mi South 12.7 mph - N/A   Haze
6:55 PM 94.3 °F 94.1 °F 59.9 °F 32% 29.94 in 7.0 mi SSE 17.3 mph 25.3 mph N/A   Mostly Cloudy
7:15 PM 92.5 °F 92.6 °F 61.2 °F 35% 29.94 in 5.0 mi SSE 13.8 mph 23.0 mph N/A   Haze
7:35 PM 91.8 °F 91.9 °F 61.3 °F 36% 29.94 in 10.0 mi SSE 13.8 mph 18.4 mph N/A   Mostly Cloudy
7:55 PM 91.2 °F 91.1 °F 61.0 °F 36% 29.95 in 10.0 mi SSE 10.4 mph - N/A   Mostly Cloudy
8:15 PM 90.1 °F 90.2 °F 61.5 °F 38% 29.95 in 10.0 mi South 8.1 mph - N/A   Scattered Clouds
8:35 PM 89.6 °F 89.8 °F 61.9 °F 39% 29.96 in 10.0 mi South 9.2 mph - N/A   Clear
8:55 PM 88.7 °F 89.4 °F 62.6 °F 42% 29.97 in 10.0 mi SSE 8.1 mph - N/A   Clear
9:15 PM 87.8 °F 88.8 °F 63.5 °F 44% 29.98 in 10.0 mi SSE 8.1 mph - N/A   Clear
9:35 PM 87.3 °F 88.6 °F 64.4 °F 46% 29.98 in 10.0 mi SSE 12.7 mph - N/A   Clear
9:55 PM 86.5 °F 87.8 °F 64.4 °F 47% 29.99 in 10.0 mi SSE 11.5 mph 16.1 mph N/A   Clear
10:15 PM 86.2 °F 87.3 °F 64.0 °F 47% 30.00 in 10.0 mi SSE 12.7 mph 18.4 mph N/A   Clear
10:35 PM 86.0 °F 87.3 °F 64.4 °F 48% 30.01 in 10.0 mi SSE 12.7 mph - N/A   Clear
10:55 PM 85.1 °F 86.6 °F 64.4 °F 50% 30.02 in 10.0 mi SSE 11.5 mph - N/A   Clear
11:15 PM 84.7 °F 85.9 °F 63.9 °F 49% 30.02 in 10.0 mi SSE 12.7 mph 17.3 mph N/A   Clear
11:35 PM 84.4 °F 85.6 °F 63.7 °F 50% 30.02 in 10.0 mi SSE 11.5 mph 17.3 mph N/A   Clear
11:55 PM 83.8 °F 84.9 °F 63.5 °F 50% 30.02 in 10.0 mi SSE 10.4 mph 17.3 mph N/A   Clear